Regional Weather Roundup
Issued by NWS Goodland, KS

Home | Current Version | Previous Version | Graphics & Text | Print | Product List | Glossary On
Versions: 1 2 3 4 5 6 7 8 9 10 11 12 13 14 15 16 17 18 19 20 21 22 23 24 25 26 27 28 29 30 31 32 33 34 35 36 37 38 39 40 41 42 43 44 45 46 47 48 49 50
115
ASUS43 KGLD 031959
RWRGLD

GOODLAND FORECAST AREA HOURLY WEATHER ROUNDUP
NATIONAL WEATHER SERVICE GOODLAND KS
200 PM MDT TUE MAY 03 2016

...OFFICIAL OBSERVATIONS...

CITY           SKY/WX    TMP DP  RH WIND       PRES   REMARKS
GOODLAND KS    MOSUNNY   65  40  39 N14G23    30.11S
HILL CITY KS   PTSUNNY   65  42  43 N6        30.08S
IMPERIAL NEB   SUNNY     65  38  36 N14       30.10F
MCCOOK NEB     MOSUNNY   65  45  48 NW9       30.08F
AKRON CO       SUNNY     65  28  24 N16G26    30.16S
BURLINGTON CO  SUNNY     64  32  30 N17G25    30.13F
LIMON CO       SUNNY     62  35  36 N24G30    30.19S
$$

...UNOFFICIAL OBSERVATIONS...

CITY           SKY/WX    TMP DP  RH WIND       PRES   REMARKS
COLBY KS       PTSUNNY   61  48  63 N10G18    30.12S
LENORA KS        N/A     62  32  32 MISG        N/A
NORTON KS      MOSUNNY   63  37  39 NW7       30.06F
SHARON SPRINGS   N/A     62  44  52 N12G21      N/A
TRIBUNE KS     MOSUNNY   63  41  45 N12G23    30.14S
KIT CARSON CO    N/A     63  34  34 MISG        N/A
YUMA CO          N/A     65  35  33 N14         N/A
$$




USA.gov is the U.S. government's official web portal to all federal, state and local government web resources and services.